Location: Colorado Springs
(38.8340°N, 104.8210°W)
Time: 11:03:24
(UTC-06:00)

ISS - Pass Details

Date: 12 October 2017
Orbit: 401 x 408 km, 51.6° (Epoch: 18 October)

Event Time Altitude Azimuth Distance (km) Brightness Sun altitude
Rises 19:06:12 0° 316° (NW) 2,324 0.7 -8.9°
Reaches altitude 10° 19:08:32 10° 331° (NNW) 1,464 -0.6 -9.3°
Maximum altitude 19:11:17 24° 27° (NNE) 888 -2.4 -9.9°
Enters shadow 19:13:12 15° 74° (ENE) 1,203 -2.1 -10.2°
